Ozark, AL

9:02 AM CDT on March 25, 2017 (GMT -0500)
Cairns Army Air Field

Weather History for KOZR - March, 2011

Change the Weather History Date:

Tuesday, March 1, 2011

  Actual Average Record
Temperature  
Mean Temperature 62 °F -  
Max Temperature 71 °F 64 °F 80 °F (1997)
Min Temperature 53 °F 43 °F 26 °F (2002)
Degree Days  
Heating Degree Days 3    
Growing Degree Days 12 (Base 50)    
Moisture  
Dew Point 51 °F    
Average Humidity 77    
Maximum Humidity 100    
Minimum Humidity 40    
Precipitation  
Precipitation 0.00 in - - ()
Sea Level Pressure  
Sea Level Pressure 30.14 in    
Wind  
Wind Speed 7 mph (North)    
Max Wind Speed 12 mph    
Max Gust Speed 17 mph    
Visibility 10 miles    
Events      
Averages and records for this station are not official NWS values.
T = Trace of Precipitation, MM = Missing Value Source: NWS Daily Summary

Daily Weather History Graph

Daily Weather History Graph

Search for Another Location

Airport or City:

Trip Planner

Search our weather history database for the weather conditions in past years. The results will help you decide how hot, cold, wet, or windy it might be!

Date:

Astronomy

Mar. 01, 2011 Rise Set
Actual Time 6:09 AM CST 5:40 PM CST
Civil Twilight 5:45 AM CST 6:05 PM CST
Nautical Twilight 5:17 AM CST 6:33 PM CST
Astronomical Twilight 4:49 AM CST 7:01 PM CST
Moon 4:06 AM CST (3/1) 3:05 PM CST (3/1)
Length of Visible Light 12h 19m
Length of Day
11h 31m
Waning Crescent, 9% of the Moon is Illuminated
Mar 1
Waning Crescent
Mar 4
New
Mar 12
First Quarter
Mar 19
Full
Mar 26
Last Quarter

Hourly Weather History & Observations

Time (CST) Temp. Dew Point Humidity Pressure Visibility Wind Dir Wind Speed Gust Speed Precip Events Conditions
12:55 AM 60.1 °F 60.1 °F 100% 30.01 in 10.0 mi NW 8.1 mph - N/A   Scattered Clouds
1:55 AM 58.6 °F 58.6 °F 100% 30.02 in 10.0 mi NNW 8.1 mph - N/A   Clear
2:55 AM 57.4 °F 57.4 °F 100% 30.04 in 10.0 mi NNW 11.5 mph - N/A   Clear
3:55 AM 55.6 °F 55.6 °F 100% 30.06 in 10.0 mi NNW 9.2 mph - N/A   Clear
4:22 AM 55.4 °F 55.4 °F 100% 30.07 in 10.0 mi NNW 9.2 mph - N/A   Mostly Cloudy
4:55 AM 55.8 °F 54.7 °F 96% 30.08 in 10.0 mi North 10.4 mph - N/A   Overcast
5:35 AM 55.4 °F 53.6 °F 94% 30.10 in 10.0 mi NNW 9.2 mph - N/A   Overcast
5:55 AM 55.0 °F 53.4 °F 94% 30.11 in 10.0 mi North 10.4 mph - N/A   Overcast
6:55 AM 54.1 °F 52.0 °F 92% 30.14 in 10.0 mi North 11.5 mph 17.3 mph N/A   Overcast
7:55 AM 53.6 °F 50.0 °F 88% 30.17 in 10.0 mi NNE 10.4 mph - N/A   Overcast
8:53 AM 55.4 °F 50.0 °F 82% 30.18 in 10.0 mi NNE 8.1 mph - N/A   Scattered Clouds
8:55 AM 54.9 °F 49.8 °F 83% 30.19 in 10.0 mi NNE 9.2 mph - N/A   Scattered Clouds
9:55 AM 58.5 °F 50.0 °F 73% 30.19 in 10.0 mi North 8.1 mph - N/A   Clear
10:55 AM 62.8 °F 51.1 °F 66% 30.18 in 10.0 mi Variable 3.5 mph - N/A   Clear
11:55 AM 65.3 °F 50.9 °F 60% 30.17 in 10.0 mi Variable 5.8 mph - N/A   Clear
12:55 PM 68.4 °F 50.7 °F 53% 30.15 in 10.0 mi Variable 5.8 mph - N/A   Clear
1:55 PM 70.5 °F 50.2 °F 48% 30.14 in 10.0 mi North 8.1 mph - N/A   Clear
2:55 PM 71.2 °F 48.9 °F 45% 30.14 in 10.0 mi Variable 3.5 mph - N/A   Clear
3:55 PM 71.2 °F 45.9 °F 40% 30.12 in 10.0 mi Calm Calm - N/A   Clear
4:55 PM 69.6 °F 47.7 °F 45% 30.13 in 10.0 mi Calm Calm - N/A   Clear
5:55 PM 64.0 °F 46.9 °F 54% 30.16 in 10.0 mi Calm Calm - N/A   Clear
6:55 PM 62.1 °F 46.9 °F 58% 30.18 in 10.0 mi NNE 3.5 mph - N/A   Clear
7:55 PM 58.1 °F 47.8 °F 69% 30.19 in 10.0 mi Calm Calm - N/A   Clear
8:55 PM 56.5 °F 47.5 °F 72% 30.19 in 10.0 mi Calm Calm - N/A   Clear
9:55 PM 54.9 °F 50.7 °F 86% 30.20 in 10.0 mi Calm Calm - N/A   Clear
10:55 PM 54.1 °F 51.1 °F 89% 30.19 in 10.0 mi Calm Calm - N/A   Clear
11:55 PM 53.8 °F 51.6 °F 92% 30.20 in 10.0 mi Calm Calm - N/A   Clear